Regional Weather Roundup
Issued by NWS Charleston, SC

Home | Current Version | Previous Version | Text Only | Print | Product List | Glossary On
Versions: 1 2 3 4 5 6 7 8 9 10 11 12 13 14 15 16 17 18 19 20 21 22 23 24 25 26 27 28 29 30 31 32 33 34 35 36 37 38 39 40 41 42 43 44 45 46 47 48 49 50
000
ASUS42 KCHS 271327
RWRCHS

REGIONAL WEATHER ROUNDUP
NATIONAL WEATHER SERVICE CHARLESTON SC
900 AM EDT WED MAY 27 2015

NOTE: "FAIR" INDICATES FEW OR NO CLOUDS BELOW 12,000 FEET WITH NO
SIGNIFICANT WEATHER AND/OR OBSTRUCTIONS TO VISIBILITY.

NOT ALL STATIONS ARE QUALITY CONTROLLED BY THE NATIONAL
WEATHER SERVICE. USE DATA WITH CAUTION...ESPECIALLY
DEWPOINT OBSERVATIONS.

SCZ027-030-031-034>040-042>050-271400-
...SOUTHEAST SOUTH CAROLINA...

CITY           SKY/WX    TMP DP  RH WIND       PRES   REMARKS
N CHARLESTON   PTSUNNY   79  68  69 SW7       30.28R
WATERFRONT PAR   N/A     78  68  71 S6        30.24R
MOUNT PLEASANT LGT RAIN  79  68  69 S5        30.28R
JOHNS ISLAND   CLOUDY    81  68  65 CALM      30.28R
PINOPOLIS        N/A     81  73  78 CALM      30.21R
MONCKS CORNER  FAIR      79  68  69 S6        30.28R
SUMMERVILLE    FAIR      79  72  78 SW5       30.29R
BEAUFORT MCAS  PTSUNNY   81  68  64 SE5       30.27R
BEAUFORT ARPT  PTSUNNY   79  70  73 SE6       30.27R
HILTON HEAD IS MOSUNNY   81  70  69 CALM      30.28R
WALTERBORO     PTSUNNY   77  70  78 S7        30.28S
ALLENDALE      PTSUNNY   77  72  83 CALM      30.26S

...SOUTHERN MIDLANDS AND PEE DEE...

CITY           SKY/WX    TMP DP  RH WIND       PRES   REMARKS
GEORGETOWN     NOT AVBL
KINGSTREE      NOT AVBL
ORANGEBURG     CLOUDY    73  68  84 CALM      30.28R
BARNWELL       CLOUDY    73  72  94 CALM      30.28S
AIKEN          PTSUNNY   70  64  83 CALM      30.31S
MANNING        CLOUDY    75  59  57 CALM      30.28S
COLUMBIA       PTSUNNY   73  66  78 SE3       30.27R
SUMTER         PTSUNNY   75  70  83 S7        30.26R
FLORENCE       CLOUDY    77  72  84 SW6       30.28R
MYRTLE BEACH   PTSUNNY   79  68  69 S12       30.30R
N MYRTLE BEACH PTSUNNY   78  69  73 S9        30.29R

$$

GAZ063-065-086>088-099>101-113>116-118-119-134>141-150-271400-
...SOUTHEAST GEORGIA...

CITY           SKY/WX    TMP DP  RH WIND       PRES   REMARKS
SAVANNAH ARPT  PTSUNNY   79  68  69 SE7       30.26R
HUNTER AAF     PTSUNNY   79  70  73 S5        30.24R
FORT STEWART   MOSUNNY   78  70  76 SE5       30.24R
STATESBORO     CLOUDY    74  74 100 CALM      30.27S
SYLVANIA       CLOUDY    76  73  90 CALM      30.28R
CLAXTON        FAIR      75  72  88 CALM      30.26S

...CSRA...CENTRAL AND FAR SOUTHEAST GEORGIA...

CITY           SKY/WX    TMP DP  RH WIND       PRES   REMARKS
THOMSON        PTSUNNY   74  71  92 CALM      30.32S
AUGUSTA-BUSH   CLOUDY    72  68  87 CALM      30.27R
AUGUSTA-DANIEL CLOUDY    72  67  84 CALM      30.28R
SWAINSBORO     CLOUDY   N/A N/A N/A E3        30.27R
VIDALIA        CLOUDY    72  70  94 CALM      30.27R
EASTMAN        CLOUDY    74  74 100 CALM      30.28S
HAZLEHURST     CLOUDY    72  72 100 NE3       30.25S
ALMA           MOSUNNY   75  71  87 VRB3      30.26R
WAYCROSS       MOSUNNY   77  73  87 CALM      30.25R
JESUP          PTSUNNY   81  73  78 SE3       30.26R
BAXLEY         PTSUNNY   77  72  83 CALM      30.25S
BRUNSWICK      MOSUNNY   81  64  57 SE7       30.26R
SAINT SIMONS   NOT AVBL

$$

SCZ027-028-034-036>038-045-046-048>050-GAZ119-141-271400-
...LAKE AND SUPPLEMENTAL COASTAL OBSERVATIONS...

STATION/POSITION TIME  TEMP    WIND        PRES    WAVE   SWELL
                       AIR SEA DIR/SP/G            HT/PER HT/PER/DIR
                 (UTC) (F)     (DEG/KT/KT) (MB)    (FT/S) (FT/S/D)
UPR LAKE MARION  NOT AVBL
WINYAH BAY       1200   76     190/  3     1024.0
LAKE MURRAY      1200   71      CALM  /  1 1024.0R
ACE BASIN NERRS  NOT AVBL
FORT PULASKI     1300   79 78  150/  4/  7 1025.4R
SAPELO ISLAND    1300   81     130/  7     1024.0R

$$

ANZ835-935-AMZ111-154-330-350-352-354-370-450-454-472-271400-
...C-MAN AND BUOY OBSERVATIONS...

STATION/POSITION TIME  TEMP    WIND        PRES    WAVE   SWELL
                       AIR SEA DIR/SP/G            HT/PER HT/PER/DIR
                 (UTC) (F)     (DEG/KT/KT) (MB)    (FT/S) (FT/S/D)
BUOY 41004       1250   78 77  150/  4/  6 1024.5R   3/ 6   3/ 6
BUOY 41008       1250   77 77  140/  8/  8 1024.5R   3/ 6   3/110/ 6
FOLLY BEACH CMAN 1300   77     170/  6/  7 1025.3R
CAPERS NEARSHORE 1208   77     180/  6/  8 1024.6R
FRIPP NEARSHORE  1200   78     160/  8/ 10 1023.4R


STATION/POSITION TIME  TEMP    WIND        PRES    WAVE   SWELL
                       AIR SEA DIR/SP/G            HT/PER HT/PER/DIR
                 (UTC) (F)     (DEG/KT/KT) (MB)    (FT/S) (FT/S/D)
5E ST. MARYS GA  1221      78                N/A     3/ 7
FRYING PAN BUOY  1250   78 74  140/  8/  8 1025.4R   3/ 6   3/130/ 6
BUOY 41025       1250   75 76  170/ 10/ 12 1025.9R   3/ 5   2/120/ 5
CAPE LOOKOUT NC  1300   74     150/  7/  8 1025.3R
BUOY 41002       1250   73 74   90/  8/ 10 1026.3R   4/ 6   3/110/ 6
BUOY 41010       1220   78 81   90/ 16/ 19 1022.2R
ST AUGUSTINE FL  1300   77 78  120/  7/  8 1024.2R


$$



USA.gov is the U.S. government's official web portal to all federal, state and local government web resources and services.